Weather History for Kayseri, Turkey

Change the Weather History Date:

Wednesday, September 12, 2012

  Actual Average Record
Temperature  
Mean Temperature 64 °F -  
Max Temperature 84 °F 72 °F 91 °F (2010)
Min Temperature 43 °F 43 °F 35 °F (2004)
Degree Days  
Heating Degree Days 2    
Growing Degree Days 14 (Base 50)    
Moisture  
Dew Point 41 °F    
Average Humidity 47    
Maximum Humidity 87    
Minimum Humidity 11    
Precipitation  
Precipitation 0.00 in - - ()
Sea Level Pressure  
Sea Level Pressure 29.96 in    
Wind  
Wind Speed 2 mph ()    
Max Wind Speed 9 mph    
Max Gust Speed -    
Visibility 7.1 miles    
Events      
Averages and records for this station are not official NWS values.
T = Trace of Precipitation, MM = Missing Value Source: Averaged Metar Reports

Daily Weather History Graph

Daily Weather History Graph

Search for Another Location

Airport:

Trip Planner

Search our weather history database for the weather conditions in past years. The results will help you decide how hot, cold, wet, or windy it might be!

Date:

Astronomy

Sep. 12, 2012 Rise Set
Actual Time 6:16 AM EEST 6:50 PM EEST
Civil Twilight 5:50 AM EEST 7:17 PM EEST
Nautical Twilight 5:18 AM EEST 7:49 PM EEST
Astronomical Twilight 4:46 AM EEST 8:21 PM EEST
Moon 2:14 AM EEST (9/12) 4:24 PM EEST (9/12)
Length of Visible Light 13h 27m
Length of Day
12h 33m
Waning Crescent, 16% of the Moon is Illuminated
Sep 12
Waning Crescent
Sep 16
New
Sep 22
First Quarter
Sep 30
Full
Oct 8
Last Quarter

Hourly Weather History & Observations

Time (EEST) Temp. Dew Point Humidity Pressure Visibility Wind Dir Wind Speed Gust Speed Precip Events Conditions
12:20 AM 51.8 °F 42.8 °F 71% 30.01 in - Calm Calm - N/A   Clear
12:50 AM 51.8 °F 41.0 °F 67% 30.01 in - Calm Calm - N/A   Clear
1:20 AM 50.0 °F 39.2 °F 66% 30.01 in - Calm Calm - N/A   Clear
1:50 AM 50.0 °F 39.2 °F 66% 30.01 in - NNE 1.2 mph - N/A   Clear
2:20 AM 46.4 °F 41.0 °F 81% 30.01 in - Variable 2.3 mph - N/A   Clear
2:50 AM 46.4 °F 39.2 °F 76% 30.01 in - Calm Calm - N/A   Clear
3:00 AM 46 °F 40 °F 71%  in 12 mi Calm Calm - -  
3:20 AM 46.4 °F 41.0 °F 81% 30.01 in - Calm Calm - N/A   Clear
3:50 AM 46.4 °F 39.2 °F 76% 30.01 in - Variable 2.3 mph - N/A   Clear
4:20 AM 48.2 °F 41.0 °F 76% 30.01 in - North 1.2 mph - N/A   Clear
4:50 AM 46.4 °F 41.0 °F 81% 30.01 in - NNE 1.2 mph - N/A   Clear
5:20 AM 46.4 °F 41.0 °F 81% 30.01 in - Calm Calm - N/A   Clear
5:50 AM 46.4 °F 41.0 °F 81% 30.01 in - NNE 1.2 mph - N/A   Clear
6:20 AM 44.6 °F 41.0 °F 87% 30.01 in - NNE 2.3 mph - N/A   Clear
6:50 AM 46.4 °F 41.0 °F 81% 30.01 in - NNE 2.3 mph - N/A   Clear
7:20 AM 50.0 °F 41.0 °F 71% 30.01 in - NNE 3.5 mph - N/A   Clear
7:50 AM 53.6 °F 41.0 °F 62% 30.04 in - NNE 2.3 mph - N/A   Clear
8:20 AM 57.2 °F 42.8 °F 59% 30.01 in - Calm Calm - N/A   Clear
8:50 AM 60.8 °F 42.8 °F 52% 30.01 in - Variable 1.2 mph - N/A   Clear
9:00 AM 61 °F 43 °F 41%  in 12 mi NNE 1.2 mph - -  
9:20 AM 62.6 °F 42.8 °F 48% 30.01 in - NNE 6.9 mph - N/A   Clear
9:50 AM 66.2 °F 44.6 °F 46% 30.01 in - NNE 3.5 mph - N/A   Clear
10:20 AM 68.0 °F 44.6 °F 43% 30.01 in 6.2 mi Variable 2.3 mph - N/A   Partly Cloudy
10:50 AM 69.8 °F 42.8 °F 38% 30.01 in 6.2 mi Variable 1.2 mph - N/A   Partly Cloudy
11:20 AM 71.6 °F 41.0 °F 33% 29.98 in 6.2 mi Variable 1.2 mph - N/A   Partly Cloudy
11:50 AM 75.2 °F 41.0 °F 29% 29.98 in 6.2 mi Variable 1.2 mph - N/A   Partly Cloudy
12:20 PM 77.0 °F 37.4 °F 24% 29.98 in 6.2 mi Calm Calm - N/A   Partly Cloudy
12:50 PM 78.8 °F 39.2 °F 24% 29.95 in 6.2 mi South 1.2 mph - N/A   Partly Cloudy
1:20 PM 80.6 °F 41.0 °F 24% 29.95 in 6.2 mi Variable 4.6 mph - N/A   Partly Cloudy
1:50 PM 82.4 °F 41.0 °F 23% 29.92 in 6.2 mi SW 3.5 mph - N/A   Partly Cloudy
2:20 PM 82.4 °F 41.0 °F 23% 29.92 in 6.2 mi Variable 3.5 mph - N/A   Partly Cloudy
2:50 PM 84.2 °F 41.0 °F 22% 29.89 in 6.2 mi West 8.1 mph - N/A   Partly Cloudy
3:00 PM 84 °F 39 °F 11%  in 12 mi West 8.1 mph - -   Scattered Clouds
3:20 PM 82.4 °F 39.2 °F 21% 29.89 in 6.2 mi West 8.1 mph - N/A   Partly Cloudy
3:50 PM 82.4 °F 37.4 °F 20% 29.89 in 6.2 mi West 8.1 mph - N/A   Partly Cloudy
4:20 PM 82.4 °F 37.4 °F 20% 29.89 in 6.2 mi West 5.8 mph - N/A   Partly Cloudy
4:50 PM 82.4 °F 37.4 °F 20% 29.89 in 6.2 mi West 4.6 mph - N/A   Scattered Clouds
5:20 PM 82.4 °F 37.4 °F 20% 29.89 in 6.2 mi Variable 2.3 mph - N/A   Scattered Clouds
5:50 PM 82.4 °F 39.2 °F 21% 29.89 in 6.2 mi NW 9.2 mph - N/A   Scattered Clouds
6:20 PM 78.8 °F 37.4 °F 23% 29.89 in 6.2 mi NW 8.1 mph - N/A   Scattered Clouds
6:50 PM 77.0 °F 37.4 °F 24% 29.89 in 6.2 mi NW 9.2 mph - N/A   Scattered Clouds
7:20 PM 75.2 °F 39.2 °F 27% 29.89 in 6.2 mi NW 6.9 mph - N/A   Scattered Clouds
7:50 PM 69.8 °F 41.0 °F 35% 29.89 in 6.2 mi Variable 2.3 mph - N/A   Scattered Clouds
8:20 PM 69.8 °F 41.0 °F 35% 29.92 in 6.2 mi SE 3.5 mph - N/A   Scattered Clouds
8:50 PM 71.6 °F 41.0 °F 33% 29.92 in 6.2 mi Calm Calm - N/A   Partly Cloudy
9:00 PM 71 °F 40 °F 21%  in 12 mi Calm Calm - -   Scattered Clouds
9:20 PM 66.2 °F 41.0 °F 40% 29.92 in - Variable 2.3 mph - N/A   Clear
9:50 PM 64.4 °F 42.8 °F 45% 29.92 in - Calm Calm - N/A   Clear
10:20 PM 62.6 °F 42.8 °F 48% 29.92 in - Calm Calm - N/A   Clear
10:50 PM 57.2 °F 44.6 °F 63% 29.95 in - East 3.5 mph - N/A   Clear
11:20 PM 59.0 °F 42.8 °F 55% 29.95 in - Variable 1.2 mph - N/A   Clear
11:50 PM 57.2 °F 44.6 °F 63% 29.95 in - Calm Calm - N/A   Clear